Lapse_Rate
8.7 9.0 9.4 9.6 9.5 9.5 9.5 9.5 9.2 9.4 9.0 9.3 9.9 9.9 9.7 9.7 9.1 9.3 9.3 9.6 9.2 8.7 9.7 9.4 8.1 9.8 9.8 9.8 9.6 9.7 9.7 9.6
8.9 9.0 9.2 9.4 9.4 9.5 9.4 9.5 9.5 9.7 9.3 9.4 9.6 9.4 9.7 9.6 9.0 8.7 9.4 9.6 9.0 8.4 9.7 8.8 8.0 9.8 9.7 9.7 9.6 8.7 9.4 9.0
8.7 8.9 9.1 9.1 9.2 9.4 9.4 9.5 9.5 9.6 9.7 9.7 9.7 9.7 9.8 9.7 8.5 9.3 9.5 9.5 9.1 8.0 9.5 9.1 8.4 9.8 9.6 9.0 9.0 9.3 9.5 9.5
8.5 8.7 8.9 9.0 9.1 9.2 9.4 9.5 9.6 9.6 9.6 9.9 9.8 9.8 9.8 9.6 9.5 9.4 9.4 8.4 8.6 9.4 9.1 9.4 9.6 9.7 9.4 8.1 7.5 8.7 9.1 9.2
8.7 8.7 8.8 8.9 9.1 9.4 9.5 9.5 9.6 9.7 9.7 9.6 9.3 9.3 9.2 9.4 9.4 9.6 9.4 7.4 7.1 9.6 9.6 9.4 9.5 9.6 9.5 8.8 9.2 9.3 8.2 9.0
8.4 8.7 8.9 9.1 9.2 9.3 9.5 9.5 9.6 9.7 9.6 9.5 9.7 9.2 9.4 9.6 9.5 9.3 8.9 9.6 8.4 9.3 9.6 9.3 9.5 9.2 9.6 9.0 9.3 7.9 7.3 6.9
8.6 8.8 9.0 9.1 9.3 9.4 9.5 9.4 9.5 9.6 9.6 9.5 9.4 9.2 9.4 9.4 9.0 9.2 9.3 9.1 7.4 8.6 9.3 8.5 7.8 7.8 8.9 9.5 8.7 5.7 5.9 6.9
8.4 8.6 8.8 8.9 8.8 9.0 9.3 9.4 9.3 9.5 9.5 9.5 9.5 9.4 9.4 9.2 8.3 8.3 9.1 8.2 4.5 3.6 4.4 4.8 5.4 5.8 4.0 3.1 4.4 5.2 5.4 5.5
8.3 8.5 8.6 8.8 8.8 9.0 9.1 9.2 9.2 9.4 9.1 9.5 9.7 8.6 8.7 8.7 7.6 7.6 6.1 4.0 2.0 2.4 1.1 4.3 4.7 3.7 4.0 5.1 4.7 3.8 4.9 5.8
8.2 8.5 8.7 8.7 8.8 9.0 9.0 9.2 9.3 9.3 9.4 8.7 9.0 8.7 8.3 9.1 8.2 7.3 3.8 1.8 2.2 2.5 4.3 5.3 3.8 4.0 2.9 3.6 3.9 5.6 4.6 8.2
8.2 8.5 8.5 8.8 9.0 9.1 9.1 9.3 9.3 9.3 9.1 8.1 9.2 9.0 9.1 8.5 7.7 4.1 3.1 3.5 4.3 4.5 4.8 4.2 5.0 3.6 2.0 3.0 3.9 5.2 7.5 8.2
8.2 8.4 8.6 8.8 8.9 9.1 9.1 9.2 9.3 9.3 9.3 9.2 8.7 8.4 7.4 7.5 6.4 4.5 4.7 4.1 5.1 6.3 5.0 5.2 4.3 2.5 2.1 3.4 5.9 7.9 8.5 9.3
8.3 8.4 8.6 8.7 8.8 9.0 9.1 9.2 9.2 9.3 9.3 9.2 8.0 6.0 5.2 5.2 4.8 5.5 5.2 5.5 6.5 5.8 6.3 4.9 3.4 3.0 4.6 6.4 7.2 8.6 9.4 8.7
8.2 8.4 8.5 8.6 8.7 8.8 9.0 9.1 9.3 9.4 9.5 9.4 8.7 5.9 5.0 4.8 4.8 5.1 5.5 5.6 4.9 4.5 3.4 3.1 4.0 5.0 6.3 7.3 8.4 9.4 8.0 6.7
8.2 8.3 8.5 8.7 8.7 8.8 8.9 9.0 9.2 9.3 9.3 9.3 9.1 8.2 6.4 6.0 5.8 6.2 4.8 3.6 2.7 2.7 3.0 3.5 4.4 6.2 8.1 8.3 7.6 7.7 7.3 6.7
8.0 8.2 8.4 8.6 8.7 8.8 9.0 9.1 9.2 9.3 9.2 9.2 8.9 8.4 8.7 8.3 7.5 7.3 6.7 5.7 5.1 4.0 3.2 4.1 5.3 7.5 7.8 7.8 7.4 7.4 7.0 7.2
8.1 8.3 8.5 8.6 8.7 8.8 9.0 9.0 9.1 9.2 8.8 9.2 9.2 9.1 9.3 9.2 8.9 7.8 6.6 6.5 5.9 5.3 5.3 7.2 6.5 7.0 3.2 3.7 6.0 8.3 6.9 7.1
8.2 8.3 8.5 8.7 8.8 8.9 8.8 8.8 9.2 9.1 9.0 9.1 8.8 8.6 8.0 7.2 7.1 6.6 6.5 6.2 5.9 5.3 4.9 5.0 5.4 5.4 3.2 3.3 3.8 6.2 5.7 5.7
8.3 8.6 8.7 8.9 9.0 9.0 9.1 9.2 8.9 8.6 8.5 8.5 8.9 8.7 8.6 8.7 8.6 7.2 6.1 6.2 6.5 6.9 7.3 8.1 9.0 9.1 4.7 4.5 3.9 4.5 5.0 5.8
Wind_Speed
16 17 18 17 19 20 18 15 16 15 11 12 11 11 15 16 10 14 16 14 13 12 9 9 11 8 6 7 5 4 3 2
13 15 19 17 19 20 19 17 18 14 12 12 11 11 11 8 12 19 15 14 14 13 9 11 12 7 8 6 5 6 5 3
17 18 17 20 20 19 20 19 18 14 12 11 9 9 11 10 12 14 14 15 15 14 13 10 14 9 8 8 8 6 4 5
19 19 19 18 19 21 19 19 19 17 17 10 10 10 9 10 9 9 12 15 16 18 16 13 13 10 9 9 9 8 6 4
19 20 20 21 20 19 19 19 20 18 18 13 16 12 12 9 10 9 9 18 18 18 16 16 13 11 8 8 7 7 4 4
21 22 22 22 20 19 19 20 19 18 18 17 13 14 11 11 10 12 15 13 17 15 15 14 10 9 7 7 7 6 3 2
20 21 22 20 20 19 18 21 20 19 18 19 17 16 16 12 11 10 10 7 7 12 10 8 5 4 5 5 4 5 1 5
20 21 20 20 22 21 19 22 21 21 20 19 20 18 17 16 8 9 10 7 3 4 4 3 2 5 9 12 4 1 2 5
21 22 20 20 21 22 22 22 22 20 20 21 17 16 10 8 7 7 7 7 7 10 13 13 13 10 10 9 4 2 4 8
19 21 21 21 21 20 20 22 21 21 20 13 13 12 11 11 12 10 9 11 11 12 17 11 13 11 10 9 5 6 8 10
7 13 16 18 19 19 18 21 20 19 15 13 13 13 13 10 9 11 10 10 11 13 12 13 13 14 13 9 6 8 11 3
4 5 8 11 13 15 16 17 18 17 16 13 11 9 8 9 10 10 11 10 12 13 13 13 12 12 9 8 9 10 7 6
4 6 6 8 10 12 13 14 15 13 12 13 10 6 7 8 8 10 10 10 12 11 11 13 13 9 10 10 7 7 8 4
6 6 8 8 9 10 10 10 12 13 14 12 10 10 7 7 7 7 4 6 4 4 8 10 9 8 9 8 10 9 3 3
7 7 8 9 8 8 8 7 6 6 6 6 7 7 8 6 5 6 6 5 6 7 8 8 8 10 7 9 6 5 3 7
6 8 8 9 9 8 9 9 8 7 6 5 7 6 5 6 6 7 8 9 8 8 8 8 6 7 6 8 7 5 4 10
7 8 9 8 9 10 10 10 9 8 9 8 7 7 6 5 6 6 5 5 7 9 9 10 8 6 11 7 7 6 6 9
11 11 10 10 11 11 11 10 10 10 10 9 9 8 8 7 7 7 7 7 7 7 7 8 9 9 9 6 4 3 5 7
13 12 12 12 12 12 12 11 11 11 10 10 9 9 9 9 9 8 8 7 8 8 9 9 8 5 10 8 5 3 7 11
Wind_Direction
157 160 160 166 161 172 176 178 178 190 204 210 205 208 206 224 180 213 190 203 195 204 199 172 198 191 184 202 187 186 215 192
174 168 166 171 170 179 186 186 193 189 196 209 202 203 211 199 209 229 176 209 197 200 197 191 208 201 206 180 182 189 187 180
172 185 185 183 185 188 192 191 197 199 203 205 209 206 209 198 206 217 205 209 200 201 212 194 207 201 188 192 201 195 201 189
182 187 192 192 197 194 199 200 199 206 219 195 204 208 223 205 198 210 214 211 212 211 211 207 202 214 192 198 202 209 201 194
189 192 195 196 200 197 205 204 206 204 208 207 207 208 208 214 215 216 212 219 214 216 209 214 206 211 204 198 202 203 216 228
196 193 198 199 198 202 203 210 208 207 200 219 205 214 214 211 208 206 216 209 217 217 215 212 209 216 215 204 190 193 184 290
205 198 195 201 201 201 203 210 212 211 207 206 225 207 226 224 193 201 221 199 201 216 226 202 205 228 201 217 168 141 287 272
209 205 202 201 196 200 204 209 214 211 214 213 213 219 223 229 224 197 205 201 172 190 189 213 167 167 104 127 152 175 214 251
216 215 209 208 205 197 203 207 213 210 203 214 213 210 225 227 196 195 205 186 176 203 191 198 180 148 165 170 144 141 238 245
219 222 218 215 208 205 200 213 212 214 214 205 216 212 212 220 203 209 201 187 190 190 199 189 168 172 146 133 172 216 239 235
241 238 227 219 220 208 201 210 220 215 217 190 210 213 206 211 199 199 200 207 204 193 185 191 189 172 150 175 201 220 230 196
166 212 226 230 217 216 207 209 222 218 214 210 199 211 210 198 189 201 211 202 204 204 193 193 181 166 165 188 221 229 207 217
148 163 178 195 202 206 204 207 216 213 208 214 185 169 136 162 200 207 210 215 217 203 191 182 175 172 189 201 212 219 207 190
167 159 164 170 179 181 184 191 194 195 200 200 163 142 171 183 199 209 217 210 183 135 151 177 176 189 206 181 202 199 144 284
213 164 158 152 144 151 146 153 156 153 139 174 175 161 163 181 180 172 176 147 144 164 178 174 189 185 186 193 123 155 208 285
188 177 155 150 133 135 123 119 122 129 133 146 125 152 177 170 164 171 181 173 173 173 173 171 149 161 167 154 138 201 261 262
163 145 136 130 136 118 119 117 118 120 118 110 113 116 115 110 95 92 109 125 130 154 167 173 150 128 117 155 203 239 268 275
143 131 123 118 112 115 112 114 110 106 106 103 101 100 100 102 106 110 116 126 140 135 141 142 149 153 157 168 172 244 257 265
135 129 123 115 110 107 108 105 103 102 100 102 103 105 106 105 102 101 115 132 144 152 163 179 193 201 168 191 220 271 268 259